FW8419 Weather Reports


Display with metric or nautical units.
time (UTC)temp
F
wind
direction
speed
MPH
gust
MPH
rain 1hr
in
rain 24hr
in
rain mn
in
humidity
%
barometer
mb
20260905010145 65 352 2.0 6.0 0.00 0.00 0.00 69 1014.1
20260905005122 65 352 1.0 5.0 0.00 0.00 0.00 68 1014.0
20260905004122 65 8 3.0 8.0 0.00 0.00 0.00 68 1014.0
20260905003124 65 11 2.0 8.0 0.00 0.00 0.00 68 1014.0
20260905002146 65 13 2.0 8.0 0.00 0.00 0.00 67 1013.9
20260905001122 65 17 2.0 6.0 0.00 0.00 0.00 68 1013.7
20260905000124 65 12 2.0 5.0 0.00 0.00 0.00 68 1013.6
20260904235122 65 12 2.0 6.0 0.00 0.00 0.00 69 1013.8
20260904234124 65 23 2.0 8.0 0.00 0.00 0.00 69 1013.8
20260904233122 65 15 2.0 6.0 0.00 0.00 0.00 69 1013.8
20260904232122 65 15 2.0 6.0 0.00 0.00 0.00 69 1013.7
20260904231122 65 349 2.0 8.0 0.00 0.00 0.00 69 1013.7
20260904230122 65 10 3.0 8.0 0.00 0.00 0.00 70 1013.7
20260904225122 65 11 2.0 6.0 0.00 0.00 0.00 70 1013.8
20260904224123 65 353 1.0 5.0 0.00 0.00 0.00 69 1013.8
20260904223123 64 29 1.0 5.0 0.00 0.00 0.00 70 1013.6
20260904222143 64 313 1.0 5.0 0.00 0.00 0.00 71 1013.6
20260904221124 64 8 2.0 11.0 0.00 0.00 0.00 72 1013.6
20260904220122 64 4 2.0 8.0 0.00 0.00 0.00 72 1013.6
20260904215122 64 291 2.0 6.0 0.00 0.00 0.00 72 1013.6
20260904214122 64 294 2.0 8.0 0.00 0.00 0.00 71 1013.7
20260904213122 63 330 2.0 6.0 0.00 0.00 0.00 71 1013.7
20260904212143 63 22 2.0 6.0 0.00 0.00 0.00 71 1013.6
20260904211124 63 332 1.0 5.0 0.00 0.00 0.00 70 1013.5
20260904210122 63 22 1.0 5.0 0.00 0.00 0.00 70 1013.5
20260904205145 63 25 2.0 6.0 0.00 0.00 0.00 71 1013.5
20260904204122 63 20 1.0 5.0 0.00 0.00 0.00 70 1013.3
20260904203122 63 24 2.0 6.0 0.00 0.00 0.00 71 1013.2
20260904202122 62 330 1.0 5.0 0.00 0.00 0.00 72 1013.3
20260904201122 62 329 1.0 5.0 0.00 0.00 0.00 72 1013.3
20260904200122 62 317 0.0 3.0 0.00 0.00 0.00 73 1013.4
20260904195122 62 343 0.0 5.0 0.00 0.00 0.00 74 1013.4
20260904194122 62 0 0.0 0.0 0.00 0.00 0.00 74 1013.5
20260904193124 62 359 0.0 5.0 0.00 0.00 0.00 74 1013.6
20260904192122 62 36 0.0 3.0 0.00 0.00 0.00 74 1013.6
20260904191122 61 36 0.0 3.0 0.00 0.00 0.00 75 1013.6
20260904190122 61 38 2.0 5.0 0.00 0.00 0.00 75 1013.5
20260904185124 61 57 1.0 3.0 0.00 0.00 0.00 75 1013.5
20260904184122 61 57 0.0 3.0 0.00 0.00 0.00 76 1013.5
20260904183146 61 71 1.0 3.0 0.00 0.00 0.00 76 1013.4
20260904182122 60 77 1.0 3.0 0.00 0.00 0.00 77 1013.3
20260904181123 60 226 0.0 3.0 0.00 0.00 0.00 75 1013.3
20260904180123 60 202 1.0 5.0 0.00 0.00 0.00 75 1013.2
20260904175122 60 164 2.0 8.0 0.00 0.00 0.00 75 1013.2
20260904174122 60 184 1.0 5.0 0.00 0.00 0.00 76 1013.1
20260904173210 59 157 2.0 8.0 0.00 0.00 0.00 75 1013.2
20260904173144 59 155 2.0 8.0 0.00 0.00 0.00 75 1013.2
20260904172143 59 160 2.0 6.0 0.00 0.00 0.00 76 1013.2
20260904171145 59 144 2.0 10.0 0.00 0.00 0.00 77 1013.1
20260904170124 59 126 2.0 8.0 0.00 0.00 0.00 77 1013.1
20260904165122 59 117 2.0 6.0 0.00 0.00 0.00 80 1012.9
20260904164124 59 102 2.0 8.0 0.00 0.00 0.00 79 1012.9
20260904163122 60 92 2.0 6.0 0.00 0.00 0.00 80 1012.9
20260904162124 60 108 2.0 10.0 0.00 0.00 0.00 79 1012.8
20260904161122 60 88 2.0 8.0 0.00 0.00 0.00 82 1012.8
20260904160122 59 69 3.0 11.0 0.00 0.00 0.00 83 1012.9
20260904155122 58 114 3.0 10.0 0.00 0.00 0.00 85 1012.9
20260904154143 58 97 2.0 6.0 0.00 0.00 0.00 87 1012.8
20260904153122 56 119 3.0 11.0 0.00 0.00 0.00 89 1012.7
20260904152122 55 111 3.0 10.0 0.00 0.00 0.00 90 1012.7
20260904151143 55 108 1.0 6.0 0.00 0.00 0.00 91 1012.6
20260904150122 54 125 1.0 5.0 0.00 0.00 0.00 92 1012.5
20260904145145 54 122 2.0 6.0 0.00 0.00 0.00 91 1012.6
20260904144122 54 131 0.0 2.0 0.00 0.00 0.00 92 1012.4
20260904143124 54 127 2.0 6.0 0.00 0.00 0.00 91 1012.2
20260904142124 53 0 0.0 0.0 0.00 0.00 0.00 92 1012.2
20260904141123 53 117 1.0 5.0 0.00 0.00 0.00 91 1012.2
20260904140123 53 0 0.0 0.0 0.00 0.00 0.00 91 1012.0
20260904135122 53 121 2.0 6.0 0.00 0.00 0.00 91 1011.8
20260904134122 53 104 0.0 3.0 0.00 0.00 0.00 92 1011.7
20260904133145 53 104 0.0 3.0 0.00 0.00 0.00 91 1011.7
20260904132122 53 121 3.0 8.0 0.00 0.00 0.00 92 1011.6
20260904131143 53 106 1.0 6.0 0.00 0.00 0.00 92 1011.5
20260904130122 53 194 0.0 2.0 0.00 0.00 0.00 91 1011.4
20260904125122 53 200 0.0 2.0 0.00 0.00 0.00 91 1011.4
20260904124122 52 0 0.0 0.0 0.00 0.00 0.00 91 1011.2
20260904123124 52 0 0.0 0.0 0.00 0.00 0.00 91 1011.3
20260904122122 52 0 0.0 0.0 0.00 0.00 0.00 91 1011.2
20260904121122 52 0 0.0 0.0 0.00 0.00 0.00 91 1010.9
20260904120122 52 197 1.0 3.0 0.00 0.00 0.00 90 1010.7
20260904115122 52 0 0.0 0.0 0.00 0.00 0.00 91 1010.7
20260904114123 52 178 0.0 2.0 0.00 0.00 0.00 91 1010.7
20260904113122 52 0 0.0 0.0 0.00 0.00 0.00 90 1010.5
20260904112122 53 0 0.0 0.0 0.00 0.00 0.00 91 1010.5
20260904111145 52 0 0.0 0.0 0.00 0.00 0.00 90 1010.4
20260904110122 53 0 0.0 0.0 0.00 0.00 0.00 90 1010.4
20260904105143 53 119 0.0 3.0 0.00 0.00 0.00 89 1010.4
20260904104143 53 118 0.0 2.0 0.00 0.00 0.00 90 1010.4
20260904103143 53 174 1.0 3.0 0.00 0.00 0.00 89 1010.3
20260904102124 53 175 0.0 2.0 0.00 0.00 0.00 89 1010.3
20260904101122 53 0 0.0 0.0 0.00 0.00 0.00 90 1010.3
20260904100124 53 0 0.0 0.0 0.00 0.00 0.00 90 1010.3
20260904095145 53 0 0.0 0.0 0.00 0.00 0.00 89 1010.3
20260904094123 53 0 0.0 0.0 0.00 0.00 0.00 89 1010.2
20260904093122 53 0 0.0 0.0 0.00 0.00 0.00 88 1010.2
20260904092122 53 0 0.0 0.0 0.00 0.00 0.00 88 1010.3
20260904091122 54 0 0.0 0.0 0.00 0.00 0.00 88 1010.3
20260904090143 54 0 0.0 0.0 0.00 0.00 0.00 88 1010.3
20260904085143 54 0 0.0 0.0 0.00 0.00 0.00 88 1010.2
20260904084122 54 0 0.0 0.0 0.00 0.00 0.00 88 1010.2
20260904083122 54 0 0.0 0.0 0.00 0.00 0.00 88 1010.3
20260904082123 54 0 0.0 0.0 0.00 0.00 0.00 88 1010.2
20260904081124 54 0 0.0 0.0 0.00 0.00 0.00 87 1010.2
20260904080143 54 0 0.0 0.0 0.00 0.00 0.00 87 1010.2
20260904075124 55 0 0.0 0.0 0.00 0.00 0.00 86 1010.2
20260904074122 55 0 0.0 0.0 0.00 0.00 0.00 87 1010.2
20260904073122 55 0 0.0 0.0 0.00 0.00 0.00 86 1010.2
20260904072123 55 0 0.0 0.0 0.00 0.00 0.00 85 1010.2
20260904071123 56 0 0.0 0.0 0.00 0.00 0.00 85 1010.1
20260904070122 56 0 0.0 0.0 0.00 0.00 0.00 85 1010.1
20260904065144 56 0 0.0 0.0 0.00 0.00 0.00 85 1010.2
20260904064122 56 0 0.0 0.0 0.00 0.00 0.00 84 1010.2
20260904063122 56 0 0.0 0.0 0.00 0.00 0.00 84 1010.2
20260904062122 57 0 0.0 0.0 0.00 0.00 0.00 84 1010.2
20260904061124 57 0 0.0 0.0 0.00 0.00 0.00 84 1010.1
20260904060122 57 0 0.0 0.0 0.00 0.00 0.00 84 1010.0
20260904055122 57 0 0.0 0.0 0.00 0.00 0.00 83 1010.0
20260904054122 57 0 0.0 0.0 0.00 0.00 0.00 83 1010.0
20260904053122 58 0 0.0 0.0 0.00 0.00 0.00 82 1009.8
20260904052122 58 242 0.0 2.0 0.00 0.00 0.00 82 1009.8
20260904051122 58 242 0.0 3.0 0.00 0.00 0.00 81 1009.9
20260904050122 58 0 0.0 0.0 0.00 0.00 0.00 80 1009.8
20260904045122 59 242 0.0 3.0 0.00 0.00 0.00 79 1009.7
20260904044122 59 242 0.0 3.0 0.00 0.00 0.00 78 1009.7
20260904043143 59 0 0.0 0.0 0.00 0.00 0.00 77 1009.8
20260904042124 60 0 0.0 0.0 0.00 0.00 0.00 77 1009.8
20260904041144 60 242 0.0 2.0 0.00 0.00 0.00 76 1009.8
20260904040127 60 280 1.0 5.0 0.00 0.00 0.00 75 1009.7
20260904035122 61 229 0.0 5.0 0.00 0.00 0.00 75 1009.8
20260904034123 61 264 1.0 5.0 0.00 0.00 0.00 75 1009.8
20260904033123 61 264 0.0 3.0 0.00 0.00 0.00 74 1009.6
20260904032122 61 328 0.0 6.0 0.00 0.00 0.00 74 1009.5
20260904031143 62 0 0.0 0.0 0.00 0.00 0.00 73 1009.6
20260904030122 62 306 0.0 5.0 0.00 0.00 0.00 73 1009.5
20260904025122 62 343 2.0 8.0 0.00 0.05 0.00 72 1009.5
20260904024145 63 322 1.0 5.0 0.00 0.05 0.00 72 1009.5
20260904023124 63 315 2.0 6.0 0.00 0.05 0.00 71 1009.5
20260904022122 63 336 0.0 3.0 0.00 0.05 0.00 71 1009.4
20260904021124 64 338 1.0 8.0 0.00 0.05 0.00 70 1009.3
20260904020122 64 339 2.0 11.0 0.00 0.05 0.00 69 1009.2
20260904015124 65 337 3.0 8.0 0.00 0.11 0.00 68 1009.1
20260904014122 66 332 4.0 13.0 0.00 0.11 0.00 67 1009.0
20260904013122 66 4 4.0 16.0 0.00 0.11 0.00 66 1009.1
20260904012122 66 347 4.0 13.0 0.00 0.11 0.00 66 1009.0
20260904011122 66 342 2.0 10.0 0.00 0.11 0.00 67 1009.0